owner,sensor,date,latitude,longitude,vertical_datum,sea_water_temperature,qcFlag
Shell,ioos:station:wmo:42877:2,2022-02-01T00:04:00Z,28.1585,-89.0936,10.4,25.5,11111222
Shell,ioos:station:wmo:42877:2,2022-02-01T00:14:00Z,28.1585,-89.0936,10.4,25.5,11111222
Shell,ioos:station:wmo:42877:2,2022-02-01T00:24:00Z,28.1585,-89.0936,10.4,25.5,11111222
Shell,ioos:station:wmo:42877:2,2022-02-01T00:34:00Z,28.1585,-89.0936,10.4,25.5,11111222
Shell,ioos:station:wmo:42877:2,2022-02-01T00:44:00Z,28.1585,-89.0936,10.5,25.6,11111222
Shell,ioos:station:wmo:42877:2,2022-02-01T00:54:00Z,28.1585,-89.0936,10.5,25.6,11111222
Shell,ioos:station:wmo:42877:2,2022-02-01T01:04:00Z,28.1585,-89.0936,10.5,25.6,11111222
Shell,ioos:station:wmo:42877:2,2022-02-01T01:14:00Z,28.1585,-89.0936,10.3,25.6,11111222
Shell,ioos:station:wmo:42877:2,2022-02-01T01:24:00Z,28.1585,-89.0936,10.2,25.6,11111222
Shell,ioos:station:wmo:42877:2,2022-02-01T01:34:00Z,28.1585,-89.0936,10.2,25.6,11111222
Shell,ioos:station:wmo:42877:2,2022-02-01T01:44:00Z,28.1585,-89.0936,10.2,25.6,11111222
Shell,ioos:station:wmo:42877:2,2022-02-01T01:54:00Z,28.1585,-89.0936,10.2,25.6,11111222
Shell,ioos:station:wmo:42877:2,2022-02-01T02:04:00Z,28.1585,-89.0936,10.2,25.6,11111222
Shell,ioos:station:wmo:42877:2,2022-02-01T02:14:00Z,28.1585,-89.0936,10.2,25.6,11111222
Shell,ioos:station:wmo:42877:2,2022-02-01T02:24:00Z,28.1585,-89.0936,10.3,25.6,11111222
Shell,ioos:station:wmo:42877:2,2022-02-01T02:34:00Z,28.1585,-89.0936,10.3,25.6,11111222
Shell,ioos:station:wmo:42877:2,2022-02-01T02:44:00Z,28.1585,-89.0936,10.3,25.7,11111222
Shell,ioos:station:wmo:42877:2,2022-02-01T02:54:00Z,28.1585,-89.0936,10.3,25.7,11111222
Shell,ioos:station:wmo:42877:2,2022-02-01T03:04:00Z,28.1585,-89.0936,10.3,25.7,11111222
Shell,ioos:station:wmo:42877:2,2022-02-01T03:14:00Z,28.1585,-89.0936,10.3,25.7,11111222
Shell,ioos:station:wmo:42877:2,2022-02-01T03:24:00Z,28.1585,-89.0936,10.3,25.7,11111222
Shell,ioos:station:wmo:42877:2,2022-02-01T03:34:00Z,28.1585,-89.0936,10.3,25.7,11111222
Shell,ioos:station:wmo:42877:2,2022-02-01T03:44:00Z,28.1585,-89.0936,10.3,25.7,11111222
Shell,ioos:station:wmo:42877:2,2022-02-01T03:54:00Z,28.1585,-89.0936,10.3,25.7,11111222
Shell,ioos:station:wmo:42877:2,2022-02-01T04:04:00Z,28.1585,-89.0936,10.3,25.7,11111222
Shell,ioos:station:wmo:42877:2,2022-02-01T04:14:00Z,28.1585,-89.0936,10.3,25.7,11111222
Shell,ioos:station:wmo:42877:2,2022-02-01T04:24:00Z,28.1585,-89.0936,10.3,25.7,11111222
Shell,ioos:station:wmo:42877:2,2022-02-01T04:34:00Z,28.1585,-89.0936,10.2,25.7,11111222
Shell,ioos:station:wmo:42877:2,2022-02-01T04:44:00Z,28.1585,-89.0936,10.3,25.7,11111222
Shell,ioos:station:wmo:42877:2,2022-02-01T04:54:00Z,28.1585,-89.0936,10.2,25.7,11111222
Shell,ioos:station:wmo:42877:2,2022-02-01T05:04:00Z,28.1585,-89.0936,10.2,25.7,11111222
Shell,ioos:station:wmo:42877:2,2022-02-01T05:14:00Z,28.1585,-89.0936,10.2,25.7,11111222
Shell,ioos:station:wmo:42877:2,2022-02-01T05:24:00Z,28.1585,-89.0936,10.2,25.7,11111222
Shell,ioos:station:wmo:42877:2,2022-02-01T05:34:00Z,28.1585,-89.0936,10.2,25.7,11111222
Shell,ioos:station:wmo:42877:2,2022-02-01T05:44:00Z,28.1585,-89.0936,10.2,25.8,11111222
Shell,ioos:station:wmo:42877:2,2022-02-01T05:54:00Z,28.1585,-89.0936,10.2,25.7,11111222
Shell,ioos:station:wmo:42877:2,2022-02-01T06:04:00Z,28.1585,-89.0936,10.2,25.7,11111222
Shell,ioos:station:wmo:42877:2,2022-02-01T06:14:00Z,28.1585,-89.0936,10.2,25.7,11111222
Shell,ioos:station:wmo:42877:2,2022-02-01T06:24:00Z,28.1585,-89.0936,10.3,25.7,11111222
Shell,ioos:station:wmo:42877:2,2022-02-01T06:34:00Z,28.1585,-89.0936,10.4,25.8,11111222
Shell,ioos:station:wmo:42877:2,2022-02-01T06:44:00Z,28.1585,-89.0936,10.4,25.8,11111222
Shell,ioos:station:wmo:42877:2,2022-02-01T06:54:00Z,28.1585,-89.0936,10.3,25.8,11111222
Shell,ioos:station:wmo:42877:2,2022-02-01T07:04:00Z,28.1585,-89.0936,10.3,25.8,11111222
Shell,ioos:station:wmo:42877:2,2022-02-01T07:14:00Z,28.1585,-89.0936,10.3,25.8,11111222
Shell,ioos:station:wmo:42877:2,2022-02-01T07:24:00Z,28.1585,-89.0936,10.4,25.8,11111222
Shell,ioos:station:wmo:42877:2,2022-02-01T07:34:00Z,28.1585,-89.0936,10.4,25.8,11111222
Shell,ioos:station:wmo:42877:2,2022-02-01T07:44:00Z,28.1585,-89.0936,10.4,25.8,11111222
Shell,ioos:station:wmo:42877:2,2022-02-01T07:54:00Z,28.1585,-89.0936,10.4,25.8,11111222
Shell,ioos:station:wmo:42877:2,2022-02-01T08:04:00Z,28.1585,-89.0936,10.4,25.7,11111222
Shell,ioos:station:wmo:42877:2,2022-02-01T08:14:00Z,28.1585,-89.0936,10.2,25.7,11111222
Shell,ioos:station:wmo:42877:2,2022-02-01T08:24:00Z,28.1585,-89.0936,10.2,25.7,11111222
Shell,ioos:station:wmo:42877:2,2022-02-01T08:34:00Z,28.1585,-89.0936,10.2,25.7,11111222
Shell,ioos:station:wmo:42877:2,2022-02-01T08:44:00Z,28.1585,-89.0936,10.2,25.7,11111222
Shell,ioos:station:wmo:42877:2,2022-02-01T08:54:00Z,28.1585,-89.0936,10.3,25.7,11111222
Shell,ioos:station:wmo:42877:2,2022-02-01T09:04:00Z,28.1585,-89.0936,10.3,25.7,11111222
Shell,ioos:station:wmo:42877:2,2022-02-01T09:14:00Z,28.1585,-89.0936,10.2,25.6,11111222
Shell,ioos:station:wmo:42877:2,2022-02-01T09:24:00Z,28.1585,-89.0936,10.2,25.6,11111222
Shell,ioos:station:wmo:42877:2,2022-02-01T09:34:00Z,28.1585,-89.0936,10.2,25.6,11111222
Shell,ioos:station:wmo:42877:2,2022-02-01T09:44:00Z,28.1585,-89.0936,10.2,25.6,11111222
Shell,ioos:station:wmo:42877:2,2022-02-01T09:54:00Z,28.1585,-89.0936,10.3,25.6,11111222
Shell,ioos:station:wmo:42877:2,2022-02-01T10:04:00Z,28.1585,-89.0936,10.3,25.6,11111222
Shell,ioos:station:wmo:42877:2,2022-02-01T10:14:00Z,28.1585,-89.0936,10.3,25.6,11111222
Shell,ioos:station:wmo:42877:2,2022-02-01T10:24:00Z,28.1585,-89.0936,10.3,25.6,11111222
Shell,ioos:station:wmo:42877:2,2022-02-01T10:34:00Z,28.1585,-89.0936,10.3,25.6,11111222
Shell,ioos:station:wmo:42877:2,2022-02-01T10:44:00Z,28.1585,-89.0936,10.3,25.6,11111222
Shell,ioos:station:wmo:42877:2,2022-02-01T10:54:00Z,28.1585,-89.0936,10.3,25.6,11111222
Shell,ioos:station:wmo:42877:2,2022-02-01T11:04:00Z,28.1585,-89.0936,10.1,25.6,11111222
Shell,ioos:station:wmo:42877:2,2022-02-01T11:14:00Z,28.1585,-89.0936,10.0,25.6,11111222
Shell,ioos:station:wmo:42877:2,2022-02-01T11:24:00Z,28.1585,-89.0936,10.0,25.6,11111222
Shell,ioos:station:wmo:42877:2,2022-02-01T11:34:00Z,28.1585,-89.0936,10.0,25.6,11111222
Shell,ioos:station:wmo:42877:2,2022-02-01T11:44:00Z,28.1585,-89.0936,10.0,25.6,11111222
Shell,ioos:station:wmo:42877:2,2022-02-01T11:54:00Z,28.1585,-89.0936,10.0,25.6,11111222
Shell,ioos:station:wmo:42877:2,2022-02-01T12:04:00Z,28.1585,-89.0936,10.0,25.6,11111222
Shell,ioos:station:wmo:42877:2,2022-02-01T12:14:00Z,28.1585,-89.0936,10.1,25.6,11111222
Shell,ioos:station:wmo:42877:2,2022-02-01T12:24:00Z,28.1585,-89.0936,10.1,25.6,11111222
Shell,ioos:station:wmo:42877:2,2022-02-01T12:34:00Z,28.1585,-89.0936,10.0,25.6,11111222
Shell,ioos:station:wmo:42877:2,2022-02-01T12:44:00Z,28.1585,-89.0936,10.1,25.6,11111222
Shell,ioos:station:wmo:42877:2,2022-02-01T12:54:00Z,28.1585,-89.0936,10.1,25.6,11111222
Shell,ioos:station:wmo:42877:2,2022-02-01T13:03:00Z,28.1585,-89.0936,10.1,25.6,11111222
Shell,ioos:station:wmo:42877:2,2022-02-01T13:14:00Z,28.1585,-89.0936,10.0,25.6,11111222
Shell,ioos:station:wmo:42877:2,2022-02-01T13:24:00Z,28.1585,-89.0936,10.0,25.6,11111222
Shell,ioos:station:wmo:42877:2,2022-02-01T13:34:00Z,28.1585,-89.0936,10.0,25.6,11111222
Shell,ioos:station:wmo:42877:2,2022-02-01T13:44:00Z,28.1585,-89.0936,10.1,25.6,11111222
Shell,ioos:station:wmo:42877:2,2022-02-01T13:54:00Z,28.1585,-89.0936,10.0,25.6,11111222
Shell,ioos:station:wmo:42877:2,2022-02-03T15:55:00Z,28.1585,-89.0936,10.2,24.4,11111222
Shell,ioos:station:wmo:42877:2,2022-02-03T16:05:00Z,28.1585,-89.0936,10.2,24.5,11111222
Shell,ioos:station:wmo:42877:2,2022-02-03T16:15:00Z,28.1585,-89.0936,10.2,24.6,11111222
Shell,ioos:station:wmo:42877:2,2022-02-03T16:24:00Z,28.1585,-89.0936,10.2,24.6,11111222
Shell,ioos:station:wmo:42877:2,2022-02-03T16:35:00Z,28.1585,-89.0936,10.2,24.6,11111222
Shell,ioos:station:wmo:42877:2,2022-02-03T16:45:00Z,28.1585,-89.0936,10.2,24.7,11111222
Shell,ioos:station:wmo:42877:2,2022-02-03T16:55:00Z,28.1585,-89.0936,10.2,24.7,11111222
Shell,ioos:station:wmo:42877:2,2022-02-03T17:05:00Z,28.1585,-89.0936,10.2,24.7,11111222
Shell,ioos:station:wmo:42877:2,2022-02-03T17:15:00Z,28.1585,-89.0936,10.2,24.8,11111222
Shell,ioos:station:wmo:42877:2,2022-02-03T17:25:00Z,28.1585,-89.0936,10.2,24.8,11111222
Shell,ioos:station:wmo:42877:2,2022-02-03T17:35:00Z,28.1585,-89.0936,10.2,24.8,11111222
Shell,ioos:station:wmo:42877:2,2022-02-03T17:45:00Z,28.1585,-89.0936,10.2,24.8,11111222
Shell,ioos:station:wmo:42877:2,2022-02-03T17:55:00Z,28.1585,-89.0936,10.1,24.8,11111222
Shell,ioos:station:wmo:42877:2,2022-02-03T18:05:00Z,28.1585,-89.0936,10.3,24.8,11111222
Shell,ioos:station:wmo:42877:2,2022-02-03T18:15:00Z,28.1585,-89.0936,10.3,24.8,11111222
Shell,ioos:station:wmo:42877:2,2022-02-03T18:25:00Z,28.1585,-89.0936,10.2,24.8,11111222
Shell,ioos:station:wmo:42877:2,2022-02-03T18:35:00Z,28.1585,-89.0936,9.7,24.8,11111222
Shell,ioos:station:wmo:42877:2,2022-02-03T18:45:00Z,28.1585,-89.0936,9.2,24.9,11111222
Shell,ioos:station:wmo:42877:2,2022-02-03T18:55:00Z,28.1585,-89.0936,8.8,24.9,11111222
Shell,ioos:station:wmo:42877:2,2022-02-03T19:05:00Z,28.1585,-89.0936,9.2,24.9,11111222
Shell,ioos:station:wmo:42877:2,2022-02-03T19:15:00Z,28.1585,-89.0936,9.8,24.9,11111222
Shell,ioos:station:wmo:42877:2,2022-02-03T19:25:00Z,28.1585,-89.0936,9.9,24.9,11111222
Shell,ioos:station:wmo:42877:2,2022-02-03T19:35:00Z,28.1585,-89.0936,9.9,24.9,11111222
Shell,ioos:station:wmo:42877:2,2022-02-03T19:45:00Z,28.1585,-89.0936,9.9,24.9,11111222
Shell,ioos:station:wmo:42877:2,2022-02-03T19:55:00Z,28.1585,-89.0936,9.9,25.0,11111222
Shell,ioos:station:wmo:42877:2,2022-02-03T20:05:00Z,28.1585,-89.0936,9.9,25.0,11111222
Shell,ioos:station:wmo:42877:2,2022-02-03T20:15:00Z,28.1585,-89.0936,9.9,25.0,11111222
Shell,ioos:station:wmo:42877:2,2022-02-03T20:25:00Z,28.1585,-89.0936,10.0,25.0,11111222
Shell,ioos:station:wmo:42877:2,2022-02-03T20:35:00Z,28.1585,-89.0936,10.0,25.1,11111222
Shell,ioos:station:wmo:42877:2,2022-02-03T20:45:00Z,28.1585,-89.0936,10.0,25.1,11111222
Shell,ioos:station:wmo:42877:2,2022-02-03T20:55:00Z,28.1585,-89.0936,10.0,25.1,11111222
Shell,ioos:station:wmo:42877:2,2022-02-03T21:05:00Z,28.1585,-89.0936,9.8,25.1,11111222
Shell,ioos:station:wmo:42877:2,2022-02-03T21:15:00Z,28.1585,-89.0936,9.8,25.1,11111222
Shell,ioos:station:wmo:42877:2,2022-02-03T21:25:00Z,28.1585,-89.0936,9.8,25.1,11111222
Shell,ioos:station:wmo:42877:2,2022-02-03T21:35:00Z,28.1585,-89.0936,9.8,25.1,11111222
Shell,ioos:station:wmo:42877:2,2022-02-03T21:45:00Z,28.1585,-89.0936,9.8,25.1,11111222
Shell,ioos:station:wmo:42877:2,2022-02-03T21:55:00Z,28.1585,-89.0936,9.8,25.1,11111222
Shell,ioos:station:wmo:42877:2,2022-02-03T22:05:00Z,28.1585,-89.0936,9.8,25.1,11111222
Shell,ioos:station:wmo:42877:2,2022-02-03T22:15:00Z,28.1585,-89.0936,9.8,25.1,11111222
Shell,ioos:station:wmo:42877:2,2022-02-03T22:25:00Z,28.1585,-89.0936,9.8,25.1,11111222
Shell,ioos:station:wmo:42877:2,2022-02-03T22:35:00Z,28.1585,-89.0936,9.8,25.1,11111222
Shell,ioos:station:wmo:42877:2,2022-02-03T22:45:00Z,28.1585,-89.0936,9.8,25.1,11111222
Shell,ioos:station:wmo:42877:2,2022-02-03T22:55:00Z,28.1585,-89.0936,9.8,25.1,11111222
Shell,ioos:station:wmo:42877:2,2022-02-03T23:05:00Z,28.1585,-89.0936,9.9,25.1,11111222
Shell,ioos:station:wmo:42877:2,2022-02-03T23:15:00Z,28.1585,-89.0936,9.9,25.1,11111222
Shell,ioos:station:wmo:42877:2,2022-02-03T23:25:00Z,28.1585,-89.0936,10.0,25.1,11111222
Shell,ioos:station:wmo:42877:2,2022-02-03T23:35:00Z,28.1585,-89.0936,9.9,25.1,11111222
Shell,ioos:station:wmo:42877:2,2022-02-03T23:45:00Z,28.1585,-89.0936,9.9,25.1,11111222
Shell,ioos:station:wmo:42877:2,2022-02-03T23:55:00Z,28.1585,-89.0936,9.9,25.1,11111222
Shell,ioos:station:wmo:42877:2,2022-02-04T00:05:00Z,28.1585,-89.0936,9.9,25.1,11111222
Shell,ioos:station:wmo:42877:2,2022-02-04T00:15:00Z,28.1585,-89.0936,9.9,25.1,11111222
Shell,ioos:station:wmo:42877:2,2022-02-04T00:25:00Z,28.1585,-89.0936,9.9,25.1,11111222
Shell,ioos:station:wmo:42877:2,2022-02-04T00:35:00Z,28.1585,-89.0936,9.9,25.0,11111222
Shell,ioos:station:wmo:42877:2,2022-02-04T00:45:00Z,28.1585,-89.0936,10.0,25.0,11111222
Shell,ioos:station:wmo:42877:2,2022-02-04T00:55:00Z,28.1585,-89.0936,9.9,25.0,11111222
Shell,ioos:station:wmo:42877:2,2022-02-04T01:05:00Z,28.1585,-89.0936,9.9,25.0,11111222
Shell,ioos:station:wmo:42877:2,2022-02-04T01:15:00Z,28.1585,-89.0936,9.9,25.0,11111222
Shell,ioos:station:wmo:42877:2,2022-02-04T01:25:00Z,28.1585,-89.0936,9.9,25.0,11111222
Shell,ioos:station:wmo:42877:2,2022-02-04T01:35:00Z,28.1585,-89.0936,10.0,25.0,11111222
Shell,ioos:station:wmo:42877:2,2022-02-04T01:45:00Z,28.1585,-89.0936,9.9,25.0,11111222
Shell,ioos:station:wmo:42877:2,2022-02-04T01:55:00Z,28.1585,-89.0936,10.0,25.0,11111222
Shell,ioos:station:wmo:42877:2,2022-02-04T02:05:00Z,28.1585,-89.0936,10.0,25.0,11111222
Shell,ioos:station:wmo:42877:2,2022-02-04T02:15:00Z,28.1585,-89.0936,10.0,25.0,11111222
Shell,ioos:station:wmo:42877:2,2022-02-04T02:25:00Z,28.1585,-89.0936,10.0,25.0,11111222
Shell,ioos:station:wmo:42877:2,2022-02-04T02:35:00Z,28.1585,-89.0936,10.0,25.0,11111222
Shell,ioos:station:wmo:42877:2,2022-02-04T02:45:00Z,28.1585,-89.0936,10.0,24.9,11111222
Shell,ioos:station:wmo:42877:2,2022-02-04T02:55:00Z,28.1585,-89.0936,10.0,24.9,11111222
Shell,ioos:station:wmo:42877:2,2022-02-04T03:05:00Z,28.1585,-89.0936,10.0,24.9,11111222
Shell,ioos:station:wmo:42877:2,2022-02-04T03:15:00Z,28.1585,-89.0936,10.0,24.9,11111222
Shell,ioos:station:wmo:42877:2,2022-02-04T03:25:00Z,28.1585,-89.0936,10.0,24.9,11111222
Shell,ioos:station:wmo:42877:2,2022-02-04T03:35:00Z,28.1585,-89.0936,10.0,24.9,11111222
Shell,ioos:station:wmo:42877:2,2022-02-04T03:45:00Z,28.1585,-89.0936,10.0,24.9,11111222
Shell,ioos:station:wmo:42877:2,2022-02-04T03:55:00Z,28.1585,-89.0936,9.9,24.9,11111222
Shell,ioos:station:wmo:42877:2,2022-02-04T04:05:00Z,28.1585,-89.0936,9.9,24.9,11111222
Shell,ioos:station:wmo:42877:2,2022-02-04T04:15:00Z,28.1585,-89.0936,9.9,24.9,11111222
Shell,ioos:station:wmo:42877:2,2022-02-04T04:25:00Z,28.1585,-89.0936,10.0,24.9,11111222
Shell,ioos:station:wmo:42877:2,2022-02-04T04:35:00Z,28.1585,-89.0936,10.0,24.9,11111222
Shell,ioos:station:wmo:42877:2,2022-02-04T04:45:00Z,28.1585,-89.0936,10.0,24.9,11111222
Shell,ioos:station:wmo:42877:2,2022-02-04T04:55:00Z,28.1585,-89.0936,10.0,24.9,11111222
Shell,ioos:station:wmo:42877:2,2022-02-04T05:05:00Z,28.1585,-89.0936,10.0,24.9,11111222
Shell,ioos:station:wmo:42877:2,2022-02-04T05:15:00Z,28.1585,-89.0936,10.0,24.9,11111222
Shell,ioos:station:wmo:42877:2,2022-02-04T05:25:00Z,28.1585,-89.0936,10.0,24.9,11111222
Shell,ioos:station:wmo:42877:2,2022-02-04T05:35:00Z,28.1585,-89.0936,10.0,24.8,11111222
Shell,ioos:station:wmo:42877:2,2022-02-04T05:45:00Z,28.1585,-89.0936,9.9,24.8,11111222
Shell,ioos:station:wmo:42877:2,2022-02-04T05:55:00Z,28.1585,-89.0936,10.0,24.8,11111222
Shell,ioos:station:wmo:42877:2,2022-02-04T06:05:00Z,28.1585,-89.0936,10.0,24.8,11111222
Shell,ioos:station:wmo:42877:2,2022-02-04T06:15:00Z,28.1585,-89.0936,10.2,24.8,11111222
Shell,ioos:station:wmo:42877:2,2022-02-04T06:25:00Z,28.1585,-89.0936,10.2,24.8,11111222
Shell,ioos:station:wmo:42877:2,2022-02-04T06:35:00Z,28.1585,-89.0936,10.2,24.8,11111222
Shell,ioos:station:wmo:42877:2,2022-02-04T06:45:00Z,28.1585,-89.0936,10.2,24.8,11111222
Shell,ioos:station:wmo:42877:2,2022-02-04T06:55:00Z,28.1585,-89.0936,10.1,24.9,11111222
Shell,ioos:station:wmo:42877:2,2022-02-04T07:05:00Z,28.1585,-89.0936,10.1,24.9,11111222
Shell,ioos:station:wmo:42877:2,2022-02-04T07:15:00Z,28.1585,-89.0936,10.1,24.9,11111222
Shell,ioos:station:wmo:42877:2,2022-02-04T07:25:00Z,28.1585,-89.0936,10.1,24.9,11111222
Shell,ioos:station:wmo:42877:2,2022-02-04T07:35:00Z,28.1585,-89.0936,10.0,24.9,11111222
Shell,ioos:station:wmo:42877:2,2022-02-04T07:45:00Z,28.1585,-89.0936,10.1,24.8,11111222
Shell,ioos:station:wmo:42877:2,2022-02-04T07:55:00Z,28.1585,-89.0936,10.0,24.8,11111222
Shell,ioos:station:wmo:42877:2,2022-02-04T08:05:00Z,28.1585,-89.0936,10.0,24.8,11111222
Shell,ioos:station:wmo:42877:2,2022-02-04T08:15:00Z,28.1585,-89.0936,10.0,24.8,11111222
Shell,ioos:station:wmo:42877:2,2022-02-04T08:25:00Z,28.1585,-89.0936,10.0,24.8,11111222
Shell,ioos:station:wmo:42877:2,2022-02-04T08:35:00Z,28.1585,-89.0936,10.0,24.7,11111222
Shell,ioos:station:wmo:42877:2,2022-02-04T08:45:00Z,28.1585,-89.0936,10.0,24.7,11111222
Shell,ioos:station:wmo:42877:2,2022-02-04T08:55:00Z,28.1585,-89.0936,10.0,24.7,11111222
Shell,ioos:station:wmo:42877:2,2022-02-04T09:05:00Z,28.1585,-89.0936,10.0,24.7,11111222
Shell,ioos:station:wmo:42877:2,2022-02-04T09:15:00Z,28.1585,-89.0936,10.0,24.6,11111222
Shell,ioos:station:wmo:42877:2,2022-02-04T09:25:00Z,28.1585,-89.0936,10.0,24.6,11111222
Shell,ioos:station:wmo:42877:2,2022-02-04T09:35:00Z,28.1585,-89.0936,10.0,24.6,11111222
Shell,ioos:station:wmo:42877:2,2022-02-04T09:45:00Z,28.1585,-89.0936,10.0,24.5,11111222
Shell,ioos:station:wmo:42877:2,2022-02-04T09:55:00Z,28.1585,-89.0936,10.0,24.4,11111222
Shell,ioos:station:wmo:42877:2,2022-02-04T10:05:00Z,28.1585,-89.0936,10.0,24.4,11111222
Shell,ioos:station:wmo:42877:2,2022-02-04T10:15:00Z,28.1585,-89.0936,10.0,24.3,11111222
Shell,ioos:station:wmo:42877:2,2022-02-04T10:25:00Z,28.1585,-89.0936,10.0,24.2,11111222
Shell,ioos:station:wmo:42877:2,2022-02-04T10:35:00Z,28.1585,-89.0936,10.0,24.2,11111222
Shell,ioos:station:wmo:42877:2,2022-02-04T10:45:00Z,28.1585,-89.0936,10.0,24.1,11111222
Shell,ioos:station:wmo:42877:2,2022-02-04T10:55:00Z,28.1585,-89.0936,10.0,24.1,11111222
Shell,ioos:station:wmo:42877:2,2022-02-04T11:05:00Z,28.1585,-89.0936,10.0,24.1,11111222
Shell,ioos:station:wmo:42877:2,2022-02-04T11:15:00Z,28.1585,-89.0936,9.9,24.1,11111222
Shell,ioos:station:wmo:42877:2,2022-02-04T11:25:00Z,28.1585,-89.0936,9.9,24.1,11111222
Shell,ioos:station:wmo:42877:2,2022-02-04T11:35:00Z,28.1585,-89.0936,9.9,24.1,11111222
Shell,ioos:station:wmo:42877:2,2022-02-04T11:45:00Z,28.1585,-89.0936,10.0,24.1,11111222
Shell,ioos:station:wmo:42877:2,2022-02-04T11:55:00Z,28.1585,-89.0936,10.0,24.1,11111222
Shell,ioos:station:wmo:42877:2,2022-02-04T12:05:00Z,28.1585,-89.0936,10.0,24.1,11111222
Shell,ioos:station:wmo:42877:2,2022-02-04T12:15:00Z,28.1585,-89.0936,10.0,24.1,11111222
Shell,ioos:station:wmo:42877:2,2022-02-04T12:25:00Z,28.1585,-89.0936,10.0,24.1,11111222
Shell,ioos:station:wmo:42877:2,2022-02-04T12:35:00Z,28.1585,-89.0936,10.0,24.0,11111222
Shell,ioos:station:wmo:42877:2,2022-02-04T12:45:00Z,28.1585,-89.0936,9.9,24.0,11111222
Shell,ioos:station:wmo:42877:2,2022-02-04T12:55:00Z,28.1585,-89.0936,9.9,24.1,11111222
Shell,ioos:station:wmo:42877:2,2022-02-04T13:05:00Z,28.1585,-89.0936,9.9,24.0,11111222
Shell,ioos:station:wmo:42877:2,2022-02-04T13:15:00Z,28.1585,-89.0936,9.9,24.0,11111222
Shell,ioos:station:wmo:42877:2,2022-02-04T13:25:00Z,28.1585,-89.0936,9.9,24.0,11111222
Shell,ioos:station:wmo:42877:2,2022-02-04T13:35:00Z,28.1585,-89.0936,9.9,24.0,11111222
Shell,ioos:station:wmo:42877:2,2022-02-04T13:45:00Z,28.1585,-89.0936,9.9,24.0,11111222
Shell,ioos:station:wmo:42877:2,2022-02-04T13:55:00Z,28.1585,-89.0936,9.9,23.9,11111222
Shell,ioos:station:wmo:42877:2,2022-02-04T14:05:00Z,28.1585,-89.0936,9.9,23.9,11111222
Shell,ioos:station:wmo:42877:2,2022-02-04T14:15:00Z,28.1585,-89.0936,9.9,23.9,11111222
Shell,ioos:station:wmo:42877:2,2022-02-04T14:25:00Z,28.1585,-89.0936,9.9,23.9,11111222
Shell,ioos:station:wmo:42877:2,2022-02-04T14:35:00Z,28.1585,-89.0936,9.9,23.9,11111222
Shell,ioos:station:wmo:42877:2,2022-02-04T14:45:00Z,28.1585,-89.0936,9.9,23.9,11111222
Shell,ioos:station:wmo:42877:2,2022-02-04T14:55:00Z,28.1585,-89.0936,9.9,23.9,11111222
Shell,ioos:station:wmo:42877:2,2022-02-04T15:05:00Z,28.1585,-89.0936,9.9,23.8,11111222
Shell,ioos:station:wmo:42877:2,2022-02-04T15:15:00Z,28.1585,-89.0936,9.8,23.8,11111222
Shell,ioos:station:wmo:42877:2,2022-02-04T15:25:00Z,28.1585,-89.0936,9.8,23.7,11111222
Shell,ioos:station:wmo:42877:2,2022-02-04T15:35:00Z,28.1585,-89.0936,9.9,23.7,11111222
Shell,ioos:station:wmo:42877:2,2022-02-04T15:45:00Z,28.1585,-89.0936,9.9,23.7,11111222
Shell,ioos:station:wmo:42877:2,2022-02-04T15:55:00Z,28.1585,-89.0936,9.9,23.7,11111222
Shell,ioos:station:wmo:42877:2,2022-02-04T16:05:00Z,28.1585,-89.0936,9.9,23.7,11111222
Shell,ioos:station:wmo:42877:2,2022-02-04T16:15:00Z,28.1585,-89.0936,9.9,23.7,11111222
Shell,ioos:station:wmo:42877:2,2022-02-04T16:25:00Z,28.1585,-89.0936,9.9,23.7,11111222
Shell,ioos:station:wmo:42877:2,2022-02-04T16:35:00Z,28.1585,-89.0936,9.9,23.7,11111222
Shell,ioos:station:wmo:42877:2,2022-02-04T16:45:00Z,28.1585,-89.0936,10.0,23.8,11111222
Shell,ioos:station:wmo:42877:2,2022-02-04T16:55:00Z,28.1585,-89.0936,9.9,23.8,11111222
Shell,ioos:station:wmo:42877:2,2022-02-04T17:05:00Z,28.1585,-89.0936,9.9,23.8,11111222
Shell,ioos:station:wmo:42877:2,2022-02-04T17:15:00Z,28.1585,-89.0936,9.9,23.8,11111222
Shell,ioos:station:wmo:42877:2,2022-02-04T17:25:00Z,28.1585,-89.0936,9.9,23.8,11111222
Shell,ioos:station:wmo:42877:2,2022-02-04T17:35:00Z,28.1585,-89.0936,9.9,23.8,11111222
Shell,ioos:station:wmo:42877:2,2022-02-04T17:45:00Z,28.1585,-89.0936,9.8,23.8,11111222
Shell,ioos:station:wmo:42877:2,2022-02-04T17:55:00Z,28.1585,-89.0936,9.9,23.8,11111222
Shell,ioos:station:wmo:42877:2,2022-02-04T18:05:00Z,28.1585,-89.0936,9.9,23.8,11111222
Shell,ioos:station:wmo:42877:2,2022-02-04T18:15:00Z,28.1585,-89.0936,9.9,23.8,11111222
Shell,ioos:station:wmo:42877:2,2022-02-04T18:25:00Z,28.1585,-89.0936,9.9,23.7,11111222
Shell,ioos:station:wmo:42877:2,2022-02-04T18:35:00Z,28.1585,-89.0936,9.9,23.7,11111222
Shell,ioos:station:wmo:42877:2,2022-02-04T18:45:00Z,28.1585,-89.0936,9.9,23.6,11111222
Shell,ioos:station:wmo:42877:2,2022-02-04T18:55:00Z,28.1585,-89.0936,9.9,23.6,11111222
Shell,ioos:station:wmo:42877:2,2022-02-04T19:05:00Z,28.1585,-89.0936,9.9,23.6,11111222
Shell,ioos:station:wmo:42877:2,2022-02-04T19:15:00Z,28.1585,-89.0936,9.9,23.6,11111222
Shell,ioos:station:wmo:42877:2,2022-02-04T19:25:00Z,28.1585,-89.0936,9.9,23.6,11111222
Shell,ioos:station:wmo:42877:2,2022-02-04T19:35:00Z,28.1585,-89.0936,9.9,23.6,11111222
Shell,ioos:station:wmo:42877:2,2022-02-04T19:45:00Z,28.1585,-89.0936,9.9,23.5,11111222
Shell,ioos:station:wmo:42877:2,2022-02-04T19:55:00Z,28.1585,-89.0936,9.9,23.5,11111222
Shell,ioos:station:wmo:42877:2,2022-02-04T20:05:00Z,28.1585,-89.0936,9.9,23.5,11111222
Shell,ioos:station:wmo:42877:2,2022-02-04T20:15:00Z,28.1585,-89.0936,9.9,23.5,11111222
Shell,ioos:station:wmo:42877:2,2022-02-04T20:25:00Z,28.1585,-89.0936,9.9,23.5,11111222
Shell,ioos:station:wmo:42877:2,2022-02-04T20:35:00Z,28.1585,-89.0936,9.9,23.4,11111222
Shell,ioos:station:wmo:42877:2,2022-02-04T20:45:00Z,28.1585,-89.0936,9.9,23.4,11111222
Shell,ioos:station:wmo:42877:2,2022-02-04T20:55:00Z,28.1585,-89.0936,9.9,23.4,11111222
Shell,ioos:station:wmo:42877:2,2022-02-04T21:05:00Z,28.1585,-89.0936,9.9,23.4,11111222
Shell,ioos:station:wmo:42877:2,2022-02-04T21:15:00Z,28.1585,-89.0936,9.9,23.4,11111222
Shell,ioos:station:wmo:42877:2,2022-02-04T21:25:00Z,28.1585,-89.0936,9.9,23.4,11111222
Shell,ioos:station:wmo:42877:2,2022-02-04T21:35:00Z,28.1585,-89.0936,9.9,23.4,11111222
Shell,ioos:station:wmo:42877:2,2022-02-04T21:45:00Z,28.1585,-89.0936,9.9,23.4,11111222
Shell,ioos:station:wmo:42877:2,2022-02-04T21:55:00Z,28.1585,-89.0936,9.9,23.4,11111222
Shell,ioos:station:wmo:42877:2,2022-02-04T22:05:00Z,28.1585,-89.0936,9.9,23.5,11111222
Shell,ioos:station:wmo:42877:2,2022-02-04T22:15:00Z,28.1585,-89.0936,9.9,23.6,11111222
Shell,ioos:station:wmo:42877:2,2022-02-04T22:25:00Z,28.1585,-89.0936,10.0,23.6,11111222
Shell,ioos:station:wmo:42877:2,2022-02-04T22:35:00Z,28.1585,-89.0936,10.1,23.7,11111222